www.pogodaiklimat.ru

Погода и климат >> Архив погоды >> Дания >> Рённе


ПОГОДА в Рённе

  • Прогноз погоды в Рённе
  • Монитор погоды в Рённе

АРХИВ ПОГОДЫ в Рённе

Время (UTC), дата Ветер
(напр.,м/с)
 
Видим.   Явления Облачность Т
(С)
Тd
(С)
f
(%)
Тe
(С)
Тes
(С)
Комфортность P
(гПа)
Po
(гПа)
Тmin
(С)
Tmax
(С)
R
(мм)
R24
(мм)
S
(см)
13 12.08 З 6 25 км н/о +21.6 +14.3 63 +25 +25 комфорт 1012.7 1010.8
14 12.08 З 6 30 км н/о +20.5 +14.1 67 +23 +23 комфорт 1012.3 1010.4
16 12.08 З 6 35 км н/о +20.7 +13.8 65 +23 +23 комфорт 1012.4 1010.4
17 12.08 З 4 30 км н/о +20.3 +14.4 69 +23 +23 комфорт 1012.0 1010.0
19 12.08 З 3 35 км н/о +19.2 +14.4 74 +21 +21 комфорт 1012.3 1010.3
20 12.08 штиль 0 29 км н/о +16.4 +14.2 87 +16 +16 1012.3 1010.4
22 12.08 Ю 2 24 км н/о +15.4 +13.9 91 +15 +15 1011.9 1010.0
23 12.08 ЮЗ 3 35 км н/о +18.9 +15.5 81 +20 +20 1011.9 1009.9
01 13.08 З 3 45 км н/о +18.2 +15.4 84 +19 +19 1011.2 1009.2
02 13.08 В 1 13 км н/о +13.8 +13.2 96 +14 +14 1011.1 1009.1
04 13.08 0 21 км н/о +15.0 +14.7 98 1010.8 1008.8
05 13.08 26 км слаб. ливневой дождь н/о +15.1 +14.1 94 1010.4 1008.4
07 13.08 С 2 18 км слаб. ливневой дождь н/о +16.1 +14.9 93 +16 +16 1011.0 1009.0
08 13.08 С 3 28 км слаб. ливневой дождь н/о +15.0 +13.9 93 +14 +14 1011.0 1009.0
10 13.08 З 2 30 км в посл. час дождь {ливн. осадки} н/о +16.1 +14.4 90 +16 +16 1011.4 1009.4
11 13.08 ЮЗ 4 50 км н/о +17.5 +14.2 81 +17 +17 1011.5 1009.6
13 13.08 З 10 30 км н/о +18.3 +13.8 75 +18 +18 1011.4 1009.4
14 13.08 З 8 45 км н/о +18.6 +14.2 76 +18 +18 1011.3 1009.3
16 13.08 З 7 45 км слаб. ливневой дождь н/о +16.9 +12.7 76 +16 +16 1011.9 1010.0
17 13.08 СЗ 5 35 км {ливн. осадки} н/о +15.9 +12.8 82 +15 +15 1012.4 1010.4
19 13.08 З 5 40 км слаб. ливневой дождь н/о +15.4 +12.0 80 +14 +14 1012.9 1010.9
20 13.08 З 6 50 км {ливн. осадки} н/о +16.4 +10.3 67 +15 +15 1013.2 1011.2
22 13.08 З 6 40 км слаб. ливневой дождь н/о +16.0 +9.9 67 +15 +15 1013.5 1011.5
23 13.08 З 7 50 км {ливн. осадки} н/о +16.5 +10.4 67 +15 +15 1013.6 1011.7
01 14.08 З 6 50 км н/о +16.2 +9.7 65 +15 +15 1013.6 1011.6
02 14.08 СЗ 6 50 км н/о +15.4 +10.9 75 +14 +14 1013.5 1011.5
04 14.08 СЗ 6 1900 м сильн. ливневой дождь н/о +12.8 +10.5 86 +10 +10 1013.7 1011.8
05 14.08 СЗ 4 50 км в посл. час дождь {ливн. осадки} н/о +14.8 +11.5 81 +14 +14 1014.0 1012.0
07 14.08 З 6 30 км слаб. ливневой дождь н/о +14.3 +9.8 74 +13 +13 1014.5 1012.5
08 14.08 З 6 24 км слаб. ливневой дождь н/о +15.0 +10.8 76 +13 +13 1014.6 1012.7
10 14.08 З 6 45 км слаб. дождь н/о +15.5 +12.0 80 +14 +14 1014.7 1012.7
11 14.08 З 8 12 км слаб. ливневой дождь н/о +13.6 +11.2 85 +11 +11 1015.2 1013.2
13 14.08 З 4 35 км в посл. час дождь {ливн. осадки} н/о +17.3 +11.9 71 +17 +17 1014.8 1012.8
14 14.08 З 6 40 км н/о +17.9 +11.6 67 +17 +17 1014.7 1012.8
16 14.08 З 8 40 км н/о +17.9 +12.3 70 +17 +17 1014.5 1012.5
17 14.08 З 7 35 км н/о +17.4 +11.7 69 +16 +16 1014.5 1012.5
19 14.08 З 7 50 км н/о +17.0 +11.6 70 +16 +16 1014.8 1012.8
20 14.08 З 7 50 км н/о +17.0 +11.9 72 +16 +16 1014.7 1012.7
22 14.08 З 7 50 км н/о +17.2 +10.0 63 +16 +16 1014.6 1012.7
23 14.08 З 5 50 км н/о +17.1 +9.6 61 +17 +17 1014.7 1012.8
01 15.08 ЮЗ 6 50 км н/о +17.3 +10.9 66 +16 +16 1014.4 1012.4
02 15.08 ЮЗ 5 50 км н/о +17.5 +10.9 65 +17 +17 1014.2 1012.2
04 15.08 ЮЗ 4 50 км н/о +17.8 +10.8 64 +18 +18 1013.6 1011.6
05 15.08 Ю 5 45 км н/о +18.1 +12.0 68 +18 +18 1013.3 1011.4
07 15.08 Ю 7 45 км н/о +18.5 +12.0 66 +18 +18 1012.8 1010.8
08 15.08 Ю 6 50 км н/о +19.9 +13.1 65 +21 +21 комфорт 1012.5 1010.6
10 15.08 Ю 6 35 км н/о +20.1 +13.4 65 +22 +22 комфорт 1012.1 1010.1
11 15.08 Ю 7 45 км н/о +19.2 +12.6 66 +20 +20 1012.1 1010.1
13 15.08 Ю 5 50 км слаб. ливневой дождь н/о +19.0 +10.0 56 +20 +20 1011.4 1009.4
14 15.08 Ю 9 40 км слаб. ливневой дождь н/о +19.0 +9.7 55 +19 +19 1011.0 1009.1
16 15.08 ЮВ 5 50 км в посл. час дождь {ливн. осадки} н/о +18.9 +11.0 60 +19 +19 1010.1 1008.1
17 15.08 ЮВ 6 50 км н/о +19.0 +12.2 65 +20 +20 1010.0 1008.0
19 15.08 ЮВ 6 50 км н/о +18.3 +13.2 72 +18 +18 1010.3 1008.3
20 15.08 ЮВ 4 50 км н/о +18.5 +12.8 69 +19 +19 1010.1 1008.2
22 15.08 Ю 5 50 км н/о +19.4 +14.2 72 +21 +21 комфорт 1010.0 1008.0
23 15.08 ЮЗ 4 45 км {ливн. осадки} н/о +18.7 +15.4 81 +20 +20 1010.0 1008.0
01 16.08 ЮЗ 6 40 км н/о +18.4 +16.2 87 +18 +18 1010.0 1008.0
02 16.08 З 7 30 км н/о +18.1 +15.6 85 +17 +17 1010.2 1008.3
04 16.08 З 7 29 км н/о +17.8 +15.0 84 +17 +17 1010.7 1008.8
05 16.08 З 7 30 км н/о +18.0 +15.3 84 +17 +17 1011.1 1009.1
07 16.08 З 6 30 км н/о +19.1 +15.0 77 +20 +20 1011.9 1009.9
08 16.08 З 6 35 км н/о +18.9 +14.9 78 +20 +20 1012.2 1010.3
10 16.08 ЮЗ 5 24 км слаб. ливневой дождь н/о +18.6 +15.6 83 +19 +19 1012.8 1010.9
11 16.08 З 6 40 км {ливн. осадки} н/о +18.9 +15.4 80 +20 +20 1013.1 1011.2
13 16.08 З 6 40 км н/о +19.9 +15.3 75 +22 +22 комфорт 1013.4 1011.5
14 16.08 З 5 30 км н/о +20.0 +15.9 77 +22 +22 комфорт 1013.3 1011.4
16 16.08 ЮЗ 5 40 км н/о +18.9 +15.6 81 +20 +20 1013.5 1011.5
17 16.08 З 5 40 км н/о +19.0 +15.6 81 +20 +20 1013.6 1011.7
20 16.08 З 6 40 км н/о +18.2 +14.2 77 +18 +18 1014.3 1012.3
22 16.08 З 5 40 км н/о +18.0 +13.4 74 +18 +18 1014.2 1012.2
23 16.08 ЮЗ 4 45 км н/о +17.8 +13.2 74 +18 +18 1014.0 1012.0
01 17.08 Ю 3 50 км н/о +17.6 +12.4 72 +18 +18 1013.5 1011.6
02 17.08 Ю 4 50 км н/о +17.9 +14.4 80 +18 +18 1012.8 1010.8
04 17.08 Ю 7 50 км н/о +18.3 +15.2 82 +18 +18 1012.1 1010.1
05 17.08 Ю 6 45 км н/о +18.7 +15.5 82 +19 +19 1011.8 1009.8
07 17.08 Ю 6 35 км н/о +19.0 +15.6 81 +20 +20 1011.4 1009.5
08 17.08 Ю 6 45 км н/о +19.1 +14.7 76 +20 +20 1011.1 1009.1
10 17.08 Ю 7 35 км слаб. ливневой дождь н/о +19.1 +14.8 76 +20 +20 1010.6 1008.7
11 17.08 Ю 8 35 км слаб. ливневой дождь н/о +19.5 +14.9 75 +21 +21 комфорт 1010.3 1008.3
13 17.08 Ю 6 40 км н/о +19.5 +15.3 77 +21 +21 комфорт 1009.4 1007.4
14 17.08 Ю 6 35 км н/о +19.8 +15.4 76 +22 +22 комфорт 1008.8 1006.9
16 17.08 Ю 5 35 км в посл. час дождь {ливн. осадки} н/о +19.9 +16.1 79 +22 +22 комфорт 1008.3 1006.4
17 17.08 Ю 5 40 км н/о +20.3 +15.8 75 +23 +23 комфорт 1008.2 1006.3
19 17.08 З 3 30 км в посл. час дождь {ливн. осадки} н/о +19.1 +17.0 88 +21 +21 комфорт 1008.3 1006.4
20 17.08 З 2 29 км н/о +18.9 +17.0 89 +21 +21 комфорт 1008.3 1006.4
22 17.08 В 2 28 км н/о +17.4 +16.4 94 +18 +18 1007.9 1006.0
23 17.08 В 2 24 км н/о +17.5 +16.0 91 +18 +18 1007.8 1005.8
01 18.08 В 1 19 км слаб. дождь н/о +16.4 +15.7 96 +17 +17 1007.5 1005.5
02 18.08 З 4 27 км в посл. час дождь {ливн. осадки} н/о +17.9 +17.0 94 +18 +18 1007.5 1005.6
04 18.08 В 2 8000 м дымка {ливн. осадки} н/о +16.8 +16.5 98 +17 +17 1006.4 1004.5
05 18.08 В 1 8000 м дымка н/о +17.1 +16.8 98 +18 +18 1006.6 1004.6
07 18.08 Ю 2 35 км н/о +19.7 +18.3 92 +23 +23 комфорт 1006.2 1004.3
08 18.08 ЮВ 3 35 км н/о +19.9 +18.3 90 +23 +23 комфорт 1006.1 1004.2
10 18.08 ЮЗ 3 24 км н/о +19.9 +18.6 92 +23 +23 комфорт 1006.2 1004.2
11 18.08 ЮЗ 2 30 км слаб. дождь н/о +19.6 +17.3 87 +23 +23 комфорт 1006.2 1004.3
13 18.08 Ю 4 27 км н/о +19.5 +17.9 90 +22 +22 комфорт 1005.7 1003.8
14 18.08 Ю 5 29 км слаб. ливневой дождь н/о +19.4 +17.6 89 +21 +21 комфорт 1005.4 1003.4
16 18.08 ЮВ 4 25 км в посл. час дождь {ливн. осадки} н/о +19.5 +18.4 93 +22 +22 комфорт 1004.5 1002.5
17 18.08 Ю 7 30 км н/о +19.5 +18.4 93 +21 +21 комфорт 1004.5 1002.6
19 18.08 Ю 6 6000 м ливневой дождь н/о +19.0 +18.7 98 +20 +20 1004.1 1002.2
20 18.08 З 6 50 км в посл. час дождь {ливн. осадки} н/о +17.9 +16.7 93 +17 +17 1005.0 1003.0
22 18.08 З 8 50 км н/о +17.1 +14.3 84 +16 +16 1006.1 1004.1
23 18.08 З 8 35 км н/о +17.2 +14.4 84 +16 +16 1007.1 1005.2
01 19.08 З 5 35 км н/о +17.4 +14.9 85 +17 +17 1008.5 1006.5
02 19.08 З 5 35 км н/о +17.2 +14.0 81 +17 +17 1008.7 1006.7
05 19.08 З 5 30 км н/о +17.5 +14.5 83 +17 +17 1011.0 1009.1
07 19.08 ЮЗ 4 30 км н/о +18.1 +15.4 84 +18 +18 1011.8 1009.9
08 19.08 ЮЗ 4 28 км н/о +18.5 +15.7 84 +19 +19 1012.2 1010.2
10 19.08 ЮЗ 4 17 км н/о +19.8 +16.4 81 +22 +22 комфорт 1012.8 1010.9
11 19.08 ЮЗ 5 30 км н/о +20.0 +16.6 81 +23 +23 комфорт 1013.3 1011.4

 

Местоположение метеостанции Рённе (Дания): широта 55.07 долгота 14.75 высота над уровнем моря 17 м.

В архиве по умолчанию представлена погода в Рённе за последнюю неделю. Архивные данные за месяц целиком и за предыдущие месяцы, начиная с января 2011 года, Вы можете получить, выбрав интересующий диапазон дат из раскрывающегося списка и нажав кнопку "Ввод!".


*Определитесь, кто Вы:
робот инопланетянин человек

Внимание! Время в таблицах - всемирное. Для получения местного времени необходимо прибавить поправку, которая равна 1 ч.

Смотрите также архив погоды в соседних городах и на ближайших метеорологических станциях:

Погода в Нексо (Дания) (22 км)
Погода на Маяке Hammer Odde (Дания) (26 км)
Погода в Скиллинге (Швеция) (53 км)
Погода в Рынге (Швеция) (78 км)
Погода в Арконе (Германия) (95 км)
Погода в Мальмё аэропорту (Швеция) (102 км)
Погода в Грайфсвальдер-Ойе (Германия) (106 км)
Погода в Хано (Швеция) (106 км)
Погода в Хёрбю (Швеция) (112 км)
Погода в Колобжеге (Польша) (112 км)

Пояснения к столбцам:

Ветер - указаны скорость ветра в м/с - средняя за 10 мин, порывы в срок и между сроками (в фигурных скобках) и направление, откуда дует ветер: С - северный, СВ - северо-восточный, В - восточный, ЮВ - юго-восточный, Ю - южный, ЮЗ - юго-западный, З - западный, СЗ - северо-западный.
Видимость - горизонтальная дальность видимости в метрах или километрах. При видимости от 1 до 10 км при отсутствии осадков обычно наблюдается дымка, при ухудшении видимости до 1 км и менее - туман. В сухую погоду видимость может ухудшаться дымом, пылью или мглою.
Явления - указаны атмосферные явления, наблюдавшиеся в срок или в последний час перед сроком; фигурными скобками обозначены явления, наблюдавшиеся между сроками (за 1-3 часа до срока); квадратными скобками обозначены град или гололедные отложения с указанием их диаметра в мм.
Облачность - указаны через наклонную черту общая и нижняя облачность в баллах и высота нижней границы облаков в метрах; квадратными скобками обозначены формы облаков: Ci - перистые, Cs - перисто-слоистые, Cc - перисто-кучевые, Ac - высококучевые, As - высокослоистые, Sc - слоисто-кучевые, Ns - слоисто-дождевые, Cu - кучевые, Cb - кучево-дождевые. Подробнее классификацию облаков см. в Атласе облаков (PDF).
T - Температура воздуха - температура, измеренная на высоте 2 м над землей.
Td - Температура точки росы - температура, при понижении до которой содержащийся в воздухе водяной пар достигнет насыщения.
f - Относительная влажность воздуха - влажноcть воздуха, измеренная на высоте 2 м над землей.
Te - Эффективная температура - температура, которую ощущает одетый по сезону человек в тени. Характеристика душности погоды. При расчете учитывается влияние влажности воздуха и скорости ветра на теплоощущения человека.
Tes - Эффективная температура на солнце - температура, которую ощущает человек, с поправкой на солнечный нагрев. Характеристика знойности погоды. Зависит от высоты солнца над горизонтом, облачности и скорости ветра. Ночью, в пасмурную погоду, а также при ветре 12 м/с и более поправка равна нулю.
P - Атмосферное давление - приведенное к уровню моря атмосферное давление.
Po - Атмосферное давление - измеренное на уровне метеостанции атмосферное давление.
Tmin - Минимальная температура - минимум температуры воздуха на высоте 2 м над землей.
Tmax - Максимальная температура - максимум температуры воздуха на высоте 2 м над землей.
R - Количество осадков - Количество выпавших осадков за период времени, мм. При наведении курсора мыши на число - период времени, за который выпало указанное количество осадков.
R24 - Количество осадков - Количество выпавших осадков за 24 часа, мм.
S - Снежный покров - Высота снежного покрова, см. При наведении курсора мыши на число - состояние снежного покрова и степень покрытия местности в баллах.